Regional Weather Roundup
Issued by NWS

Home | Current Version | Previous Version | Graphics & Text | Print | Product List | Glossary On
Versions: 1 2 3 4 5 6 7 8 9 10 11 12 13 14 15 16 17 18 19 20 21 22 23 24 25 26 27 28 29 30 31 32 33 34 35 36 37 38 39 40 41 42 43 44 45 46 47 48 49 50
000
ASUS45 KABQ 260401
RWRNM
WEATHER ROUNDUP FOR NEW MEXICO
NATIONAL WEATHER SERVICE ALBUQUERQUE NM
900 PM MST SUN JAN 25 2015

NOTE: "FAIR" MEANS FEW OR NO CLOUDS BELOW 12,000 FEET AGL WITH NO
       SIGNIFICANT WEATHER OR OBSTRUCTIONS TO VISION.

      THIS PRODUCT IS RELEASED AS TWO VERSIONS.  ONE VERSION NEAR
      THE TOP OF THE HOUR CONTAINING PRELIMINARY DATA FROM ALBUQUERQUE
      AND OTHER STATIONS.  A FINAL VERSION WITH ADDITIONAL DATA IS
      ISSUED ABOUT 10 MINUTES AFTER THE HOUR.

NMZ501-503-504-510>518-260500-
NORTHWEST PLATEAU/NORTHCENTRAL MOUNTAINS

CITY           SKY/WX    TMP DP  RH WIND       PRES   REMARKS
FARMINGTON     CLEAR     31  20  63 E3        30.30R
SANTA FE       PTCLDY    29  23  78 N10       30.28R WCI  20
TAOS           PTCLDY    30  21  69 CALM      30.34R

$$
NMZ402-403-502-505>509-260500-
WESTCENTRAL MOUNTAINS/SOUTHWEST MOUNTAINS

CITY           SKY/WX    TMP DP  RH WIND       PRES   REMARKS
GALLUP         CLEAR     32  23  69 CALM      30.32S
SILVER CITY    PTCLDY    34  23  64 N7        30.34S WCI  28

$$
NMZ407-409-411-412-260500-
SOUTHERN DESERTS

CITY           SKY/WX    TMP DP  RH WIND       PRES   REMARKS
DEMING         MOCLDY    38  27  64 N7        30.30R WCI  33
HOLLOMAN AFB   PTCLDY    38  29  68 CALM      30.29R
ALAMOGORDO     PTCLDY    37  25  60 E3        30.31R
T OR C         CLEAR     47  24  40 CALM      30.30R

$$
NMZ519>523-260500-
CENTRAL VALLEYS/CENTRAL HIGHLANDS

CITY           SKY/WX    TMP DP  RH WIND       PRES   REMARKS
ALBUQUERQUE    PTCLDY    42  24  49 CALM      30.29R
DOUBLE EAGLE   CLEAR     36  23  60 NW9       30.30R WCI  29
MORIARTY ARPT  FAIR      29  23  79 CALM      30.29S
CLINES CORNERS PTCLDY    31  20  63 NW5       30.28R WCI  26
BELEN          FAIR      36  24  60 CALM      30.29S
SOCORRO        NOT AVBL

$$
NMZ524>526-539-540-260500-
SOUTHCENTRAL MOUNTAINS

CITY           SKY/WX    TMP DP  RH WIND       PRES   REMARKS
RUIDOSO        NOT AVBL

$$
NMZ527>531-260500-
NORTHEAST HIGHLANDS/NORTHEAST PLAINS

CITY           SKY/WX    TMP DP  RH WIND       PRES   REMARKS
LAS VEGAS      PTCLDY    29  24  82 NE7       30.30R WCI  22
RATON          CLEAR     30  23  75 N5        30.28R WCI  25
CLAYTON        PTCLDY    41  26  55 W14       30.23R

$$
NMZ532>537-260500-
EASTCENTRAL PLAINS

CITY           SKY/WX    TMP DP  RH WIND       PRES   REMARKS
TUCUMCARI      PTCLDY    36  30  79 NW3       30.26R
CANNON AFB     CLEAR     42  29  61 W10       30.27S
CLOVIS AIRPORT CLEAR     36  28  75 W9        30.27R WCI  29

$$
NMZ028-029-538-260500-
SOUTHEAST PLAINS

CITY           SKY/WX    TMP DP  RH WIND       PRES   REMARKS
ROSWELL        CLEAR     37  30  75 SW9       30.27F WCI  30
ARTESIA        CLEAR     39  30  70 SW9       30.29S WCI  33
CARLSBAD       PTCLDY    37  29  72 SW9       30.28R WCI  30
HOBBS          PTCLDY    37  28  70 W7        30.31S WCI  32


$$


USA.gov is the U.S. government's official web portal to all federal, state and local government web resources and services.